Погода в Чащине

Россия / Тамбовская область     51°49′24″N   42°23′17″E
темп.,
°C
ветер,
м/с
пор.,
м/с
влажн.,
%
обл.,
%
осадки,
мм/ч
давл.,
гПа
погр.,
м
24 сентября, пт
пт2400:00+7зюз117642 0.0 101310
03:00+6з228099 0.0 101211
06:00+7ююв2280100 0.0 101232
09:00+11ю3463100 0.0 1012360
12:00+14ю5649100 0.0 10111607
15:00+14ю575032 0.0 10091373
18:00+12ю2464100 0.1 100972
21:00+11ююв2267100 0.1 100936
25 сентября, сб
сб2500:00+11юв3569100 0.0 1008119
03:00+8ю3585100 0.0 100886
06:00+7ююв239299 0.0 100937
09:00+11юв2372100 0.0 1009312
12:00+14ю235749 0.0 1009958
15:00+15ююз335262 0.1 10101314
18:00+12юз336313 0.0 101145
21:00+9з22756 0.0 101228
26 сентября, вс
вс2600:00+8зюз22805 0.0 101126
03:00+7юз348562 0.0 101162
06:00+9ю4780100 0.0 1010211
09:00+11юз6870100 0.1 1008625
12:00+9ю51094100 2.9 1007582
15:00+10юз4894100 5.1 1005490
18:00+10зсз5108899 0.6 1005598
21:00+9зсз61289100 1.2 1005725
27 сентября, пн
пн2700:00+9сз5994100 2.9 1005503
03:00+9с61093100 3.6 1007609
06:00+9с61092100 0.4 1010456
09:00+11ссв698286 0.5 1012554
12:00+12ссв6876100 0.1 1015590
15:00+14с785991 0.1 10161410
18:00+11с61076100 0.1 1018500
21:00+10с5986100 0.1 1020471
28 сентября, вт
вт2800:00+9с4888100 0.0 1021438
03:00+9ссв4788100 0.0 1022387
06:00+9ссв4789100 0.0 1023395
09:00+10в4776100 0.1 1025620
12:00+13всв355138 0.0 10261370
15:00+13ссв445089 0.0 10271463
18:00+10ссв34627 0.0 102860
21:00+9св366838 0.0 1029145